星链-4783 (STARLINK-4783 )

导读

STARLINK-4783是美国太空探索技术公司(SpaceX)星链(Starlink)星座的一员,星链计划旨在构建全球卫星互联网。该卫星于2022年9月19日发射升空,承担低轨互联网通信传输任务,入轨后参与星座组网,为全球多个地区提供高速宽带服务,补充完善了星链低轨卫星通信网络的覆盖与服务能力。

Basic Information
目录编号:
53835
目录名称:
STARLINK-4783
国际标识:
2022-114T
轨道中心:
EARTH
卫星名称:
星链-4783
卫星全名:
星链-4783 (STARLINK-4783 )
卫星状态:
在轨 (已飞行1453 天)
发射日期:
2022-09-19 UTC
国别 :
美国 (US)
星等 :
--
This satellite is enrolled in the Space Conjunction Data Service (SCDS) and the current flight risk assessment level is: No High Risk
Orbit Information
数据来源 国际轨道数据 AOE轨道数据
星历时间 2026-09-11T13:21:25+0800
11小时前
查看轨道信息
2026-09-06T00:00:00+0800
6天前
查看轨道信息
半长轴 6917.893km 6917.893km
偏心率 0.0001377 0.0001426
轨道倾角 53.160° 53.159°
近地点辐角 87.616° 69.721°
升交点赤经 190.406° 215.387°
平近点角 272.499° 331.871°
近地点 538.803km 538.769km
远地点 540.709km 540.743km
周期 95.438分钟 95.438分钟
每日圈数 15.088359 15.088361
Detailed Information
固有亮度:
5
最大亮度:
2.5
卫星平台:
Starlink v1.5
覆盖范围:
全球
运营商:
太空探索技术公司
运营商所在国:
美国
制造商(研发单位):
太空探索技术公司
制造商所在国:
美国
使用方式:
暂无
Satellite Introduction
星链(Starlink)计划是由太空探索技术公司(SpaceX)提出的一个巨型低轨卫星互联网星座项目,计划在2019年至2024年间在太空搭建由约1.2万颗卫星组成的“星链”网络,其中1584颗将部署在地球上空550千米处的近地轨道,并从2020年开始工作。该卫星仍在工作。
2D Orbit Map
3D Orbit Map
Orbit Altitude Analysis Chart
Orbit Inclination Analysis Chart
Orbit Comprehensive Analysis Chart
View Comprehensive Chart
Conjunction Data List
Event ID Objects TCA Miss Dist (km) Collision Risk Probability Collision Risk Index (CRI) Action
CDM_260913-150104-376105-383521
OBJECT D (43761)
2026-09-13T
15:01:30+0000
1.579 km
极远距离
5.136078E-6 低风险 0.49
CDM_260913-135405-383506-761421
2026-09-13T
13:54:41+0000
2.030 km
极远距离
2.729484E-6 低风险 0.44
Miss Distance Evolution Trend with All Objects
Collision Probability Evolution Trend with All Objects